When you browse on this site, cookies collect data to enhance your experience and personalize the content and advertising you see.
Visit our Privacy Policy to learn more. By continuing to use the site, you agree to this use of cookies and data.
  • Em Portugal
  • Lista de países
  • Para 7 dias
  • Temperatura da água
  • Mapas de satélite
  • Mapa do tempo
  • Widgets de tempo
  • user-avatar
    Iniciar Sessão

    Previsão horária em Asuan

    Hoje, 25 Maio, Sábado

    Tempo Temperatura Precipitação Vento Pressão Humidade
    00:00 +38°C° 0 mm 2 m/s 740 mmHg 17%
    01:00 +37°C° 0 mm 2 m/s 740 mmHg 20%
    02:00 +32°C° 0 mm 0 m/s 739 mmHg 23%
    03:00 +33°C° 0 mm 1 m/s 739 mmHg 23%
    04:00 +33°C° 0 mm 1 m/s 740 mmHg 23%
    05:00 +33°C° 0 mm 1 m/s 740 mmHg 23%
    06:00 +36°C° 0 mm 2 m/s 740 mmHg 21%
    07:00 +38°C° 0 mm 3 m/s 741 mmHg 18%
    08:00 +41°C° 0 mm 4 m/s 741 mmHg 15%
    09:00 +43°C° 0 mm 4 m/s 741 mmHg 13%
    10:00 +44°C° 0 mm 4 m/s 741 mmHg 12%
    11:00 +45°C° 0 mm 4 m/s 741 mmHg 11%
    12:00 +47°C° 0 mm 4 m/s 740 mmHg 11%
    13:00 +47°C° 0 mm 4 m/s 740 mmHg 10%
    14:00 +47°C° 0 mm 3 m/s 739 mmHg 10%
    15:00 +48°C° 0 mm 4 m/s 739 mmHg 10%
    16:00 +48°C° 0 mm 4 m/s 739 mmHg 10%
    17:00 +47°C° 0 mm 4 m/s 738 mmHg 10%
    18:00 +45°C° 0 mm 4 m/s 738 mmHg 11%
    19:00 +44°C° 0 mm 4 m/s 739 mmHg 12%
    20:00 +42°C° 0 mm 5 m/s 739 mmHg 13%
    21:00 +42°C° 0 mm 5 m/s 739 mmHg 14%
    22:00 +41°C° 0 mm 6 m/s 739 mmHg 15%
    23:00 +41°C° 0 mm 6 m/s 740 mmHg 16%

    Amanhã, 26 Maio, Domingo

    Tempo Temperatura Precipitação Vento Pressão Humidade
    00:00 +40°C° 0 mm 5 m/s 740 mmHg 18%
    01:00 +37°C° 0 mm 4 m/s 739 mmHg 19%
    02:00 +36°C° 0 mm 2 m/s 739 mmHg 21%
    03:00 +36°C° 0 mm 2 m/s 739 mmHg 21%
    04:00 +36°C° 0 mm 2 m/s 739 mmHg 20%
    05:00 +35°C° 0 mm 2 m/s 740 mmHg 20%
    06:00 +37°C° 0 mm 3 m/s 740 mmHg 19%
    07:00 +38°C° 0 mm 4 m/s 740 mmHg 18%
    08:00 +41°C° 0 mm 5 m/s 741 mmHg 16%
    09:00 +42°C° 0 mm 5 m/s 740 mmHg 15%
    10:00 +44°C° 0 mm 4 m/s 740 mmHg 13%
    11:00 +45°C° 0 mm 4 m/s 740 mmHg 12%
    12:00 +47°C° 0 mm 4 m/s 739 mmHg 11%
    13:00 +46°C° 0 mm 3 m/s 739 mmHg 10%
    14:00 +47°C° 0 mm 3 m/s 738 mmHg 10%
    15:00 +47°C° 0 mm 3 m/s 738 mmHg 9%
    16:00 +47°C° 0 mm 3 m/s 738 mmHg 9%
    17:00 +47°C° 0 mm 3 m/s 737 mmHg 9%
    18:00 +45°C° 0 mm 3 m/s 738 mmHg 10%
    19:00 +44°C° 0 mm 3 m/s 738 mmHg 11%
    20:00 +42°C° 0 mm 4 m/s 738 mmHg 12%
    21:00 +42°C° 0 mm 4 m/s 738 mmHg 12%
    22:00 +41°C° 0 mm 4 m/s 739 mmHg 13%
    23:00 +41°C° 0 mm 4 m/s 739 mmHg 14%

    Depois de amanhã, 27 Maio, Segunda-feira

    Tempo Temperatura Precipitação Vento Pressão Humidade
    00:00 +40°C° 0 mm 4 m/s 739 mmHg 14%
    01:00 +38°C° 0 mm 4 m/s 739 mmHg 15%
    02:00 +37°C° 0 mm 5 m/s 739 mmHg 15%
    03:00 +37°C° 0 mm 4 m/s 738 mmHg 15%
    04:00 +36°C° 0 mm 4 m/s 738 mmHg 16%
    05:00 +35°C° 0 mm 4 m/s 738 mmHg 16%
    06:00 +37°C° 0 mm 4 m/s 739 mmHg 15%
    07:00 +40°C° 0 mm 5 m/s 739 mmHg 13%
    08:00 +42°C° 0 mm 5 m/s 740 mmHg 12%
    09:00 +43°C° 0 mm 5 m/s 740 mmHg 11%
    10:00 +46°C° 0 mm 5 m/s 740 mmHg 10%
    11:00 +47°C° 0 mm 5 m/s 740 mmHg 9%
    12:00 +48°C° 0 mm 4 m/s 739 mmHg 8%
    13:00 +47°C° 0 mm 3 m/s 738 mmHg 8%
    14:00 +48°C° 0 mm 3 m/s 738 mmHg 8%
    15:00 +47°C° 0 mm 2 m/s 737 mmHg 8%
    16:00 +47°C° 0 mm 2 m/s 737 mmHg 8%
    17:00 +47°C° 0 mm 2 m/s 737 mmHg 8%
    18:00 +45°C° 0 mm 2 m/s 737 mmHg 8%
    19:00 +42°C° 0 mm 2 m/s 738 mmHg 9%
    20:00 +40°C° 0 mm 2 m/s 738 mmHg 10%
    21:00 +40°C° 0 mm 3 m/s 739 mmHg 11%
    22:00 +41°C° 0 mm 4 m/s 739 mmHg 11%
    23:00 +41°C° 0 mm 5 m/s 739 mmHg 12%

    28 Maio, Terça-feira

    Tempo Temperatura Precipitação Vento Pressão Humidade
    00:00 +40°C° 0 mm 6 m/s 739 mmHg 12%
    01:00 +40°C° 0 mm 6 m/s 738 mmHg 13%
    02:00 +39°C° 0 mm 7 m/s 738 mmHg 13%
    03:00 +38°C° 0 mm 7 m/s 738 mmHg 13%
    04:00 +38°C° 0 mm 6 m/s 738 mmHg 13%
    05:00 +36°C° 0 mm 6 m/s 738 mmHg 13%
    06:00 +39°C° 0 mm 6 m/s 739 mmHg 12%
    07:00 +41°C° 0 mm 6 m/s 739 mmHg 11%
    08:00 +42°C° 0 mm 6 m/s 739 mmHg 10%
    09:00 +45°C° 0 mm 6 m/s 739 mmHg 9%
    10:00 +46°C° 0 mm 5 m/s 739 mmHg 9%
    11:00 +47°C° 0 mm 4 m/s 739 mmHg 8%
    12:00 +47°C° 0 mm 3 m/s 739 mmHg 8%
    13:00 +47°C° 0 mm 3 m/s 738 mmHg 8%
    14:00 +47°C° 0 mm 2 m/s 737 mmHg 8%
    15:00 +47°C° 0 mm 2 m/s 737 mmHg 8%
    16:00 +47°C° 0 mm 2 m/s 737 mmHg 8%
    17:00 +46°C° 0 mm 1 m/s 736 mmHg 8%
    18:00 +45°C° 0 mm 2 m/s 737 mmHg 9%
    19:00 +43°C° 0 mm 2 m/s 737 mmHg 10%
    20:00 +41°C° 0 mm 2 m/s 738 mmHg 10%
    21:00 +42°C° 0 mm 3 m/s 738 mmHg 10%
    22:00 +41°C° 0 mm 5 m/s 738 mmHg 9%
    23:00 +41°C° 0 mm 7 m/s 738 mmHg 9%

    29 Maio, Quarta-feira

    Tempo Temperatura Precipitação Vento Pressão Humidade
    00:00 +40°C° 0 mm 6 m/s 738 mmHg 9%
    01:00 +39°C° 0 mm 5 m/s 738 mmHg 10%
    02:00 +37°C° 0 mm 5 m/s 738 mmHg 10%
    03:00 +36°C° 0 mm 5 m/s 738 mmHg 10%
    04:00 +36°C° 0 mm 5 m/s 738 mmHg 10%
    05:00 +36°C° 0 mm 4 m/s 738 mmHg 9%
    06:00 +37°C° 0 mm 4 m/s 738 mmHg 9%
    07:00 +40°C° 0 mm 4 m/s 739 mmHg 8%
    08:00 +42°C° 0 mm 4 m/s 739 mmHg 7%
    09:00 +43°C° 0 mm 4 m/s 739 mmHg 8%
    10:00 +44°C° 0 mm 3 m/s 739 mmHg 8%
    11:00 +46°C° 0 mm 3 m/s 738 mmHg 9%
    12:00 +46°C° 0 mm 3 m/s 738 mmHg 9%
    13:00 +47°C° 0 mm 3 m/s 737 mmHg 8%
    14:00 +48°C° 0 mm 2 m/s 736 mmHg 8%
    15:00 +48°C° 0 mm 2 m/s 736 mmHg 8%
    16:00 +48°C° 0 mm 2 m/s 736 mmHg 8%
    17:00 +48°C° 0 mm 2 m/s 736 mmHg 8%
    18:00 +44°C° 0 mm 1 m/s 736 mmHg 9%
    19:00 +42°C° 0 mm 1 m/s 737 mmHg 10%
    20:00 +37°C° 0 mm 0 m/s 737 mmHg 11%
    21:00 +40°C° 0 mm 1 m/s 737 mmHg 11%
    22:00 +39°C° 0 mm 2 m/s 737 mmHg 11%
    23:00 +38°C° 0 mm 2 m/s 738 mmHg 11%

    30 Maio, Quinta-feira

    Tempo Temperatura Precipitação Vento Pressão Humidade
    00:00 +38°C° 0 mm 2 m/s 737 mmHg 11%
    01:00 +37°C° 0 mm 2 m/s 737 mmHg 12%
    02:00 +37°C° 0 mm 2 m/s 737 mmHg 13%
    03:00 +37°C° 0 mm 2 m/s 737 mmHg 14%
    04:00 +36°C° 0 mm 2 m/s 737 mmHg 15%
    05:00 +36°C° 0 mm 3 m/s 738 mmHg 17%
    06:00 +37°C° 0 mm 4 m/s 738 mmHg 17%
    07:00 +40°C° 0 mm 5 m/s 738 mmHg 17%
    08:00 +42°C° 0 mm 6 m/s 739 mmHg 18%
    09:00 +43°C° 0 mm 5 m/s 738 mmHg 17%
    10:00 +46°C° 0 mm 5 m/s 738 mmHg 16%
    11:00 +47°C° 0 mm 4 m/s 738 mmHg 15%
    12:00 +48°C° 0 mm 4 m/s 737 mmHg 14%
    13:00 +48°C° 0 mm 4 m/s 736 mmHg 13%
    14:00 +48°C° 0 mm 3 m/s 736 mmHg 12%
    15:00 +48°C° 0 mm 3 m/s 736 mmHg 12%
    16:00 +48°C° 0 mm 3 m/s 735 mmHg 11%
    17:00 +47°C° 0 mm 2 m/s 735 mmHg 11%
    18:00 +46°C° 0 mm 2 m/s 736 mmHg 12%
    19:00 +43°C° 0 mm 2 m/s 736 mmHg 13%
    20:00 +41°C° 0 mm 2 m/s 736 mmHg 14%
    21:00 +42°C° 0 mm 4 m/s 737 mmHg 16%
    22:00 +42°C° 0 mm 6 m/s 737 mmHg 18%
    23:00 +41°C° 0 mm 8 m/s 737 mmHg 20%
    Mostrar mais